TimeCDT,TemperatureF,Dew PointF,Humidity,Sea Level PressureIn,VisibilityMPH,Wind Direction,Wind SpeedMPH,Gust SpeedMPH,PrecipitationIn,Events,Conditions,WindDirDegrees,DateUTC
12:09 AM,35.6,32.0,87,29.68,10.0,WNW,9.2,-,N/A,,Overcast,300,2013-04-07 05:09:00
12:56 AM,35.1,32.0,89,29.72,10.0,NW,6.9,-,N/A,,Overcast,310,2013-04-07 05:56:00
1:56 AM,35.1,32.0,89,29.74,10.0,NW,8.1,-,N/A,,Overcast,320,2013-04-07 06:56:00
2:21 AM,35.6,32.0,87,29.73,10.0,WNW,6.9,-,N/A,,Overcast,300,2013-04-07 07:21:00
2:48 AM,35.6,32.0,87,29.73,10.0,WNW,6.9,-,N/A,,Overcast,290,2013-04-07 07:48:00
2:56 AM,35.1,32.0,89,29.75,10.0,WNW,5.8,-,N/A,,Overcast,290,2013-04-07 07:56:00
3:56 AM,35.1,32.0,89,29.76,10.0,WNW,5.8,-,N/A,,Overcast,300,2013-04-07 08:56:00
4:56 AM,35.1,32.0,89,29.79,10.0,West,6.9,-,N/A,,Overcast,270,2013-04-07 09:56:00
5:56 AM,35.1,32.0,89,29.83,10.0,West,6.9,-,N/A,,Overcast,270,2013-04-07 10:56:00
6:38 AM,35.6,32.0,87,29.82,10.0,West,4.6,-,N/A,,Overcast,280,2013-04-07 11:38:00
7:56 AM,35.1,33.1,92,29.88,7.0,West,4.6,-,N/A,,Overcast,260,2013-04-07 12:56:00
8:37 AM,35.6,33.8,93,29.87,7.0,West,5.8,-,N/A,,Overcast,260,2013-04-07 13:37:00
8:56 AM,36.0,33.1,89,29.90,8.0,West,3.5,-,N/A,,Overcast,270,2013-04-07 13:56:00
9:19 AM,35.6,33.8,93,29.88,9.0,West,4.6,-,N/A,,Overcast,270,2013-04-07 14:19:00
9:41 AM,35.6,33.8,93,29.88,9.0,West,5.8,-,N/A,,Overcast,270,2013-04-07 14:41:00
9:56 AM,37.0,34.0,89,29.92,8.0,West,6.9,-,N/A,,Overcast,260,2013-04-07 14:56:00
10:05 AM,35.6,33.8,93,29.90,9.0,West,5.8,-,N/A,,Overcast,260,2013-04-07 15:05:00
10:56 AM,37.9,33.1,83,29.94,10.0,Calm,Calm,-,N/A,,Overcast,0,2013-04-07 15:56:00
11:56 AM,37.9,30.9,76,29.96,10.0,Calm,Calm,-,N/A,,Overcast,0,2013-04-07 16:56:00
12:56 PM,37.9,32.0,79,29.96,10.0,West,3.5,-,N/A,,Overcast,260,2013-04-07 17:56:00
1:56 PM,39.0,32.0,76,29.96,10.0,Calm,Calm,-,N/A,,Overcast,0,2013-04-07 18:56:00
2:56 PM,39.9,32.0,73,29.94,10.0,South,3.5,-,N/A,,Overcast,190,2013-04-07 19:56:00
3:56 PM,42.1,32.0,67,29.90,10.0,Variable,4.6,-,N/A,,Scattered Clouds,0,2013-04-07 20:56:00
4:56 PM,43.0,32.0,65,29.90,10.0,SE,5.8,-,N/A,,Clear,140,2013-04-07 21:56:00
5:56 PM,43.0,32.0,65,29.90,10.0,SE,6.9,-,N/A,,Clear,140,2013-04-07 22:56:00
6:56 PM,41.0,32.0,70,29.90,10.0,SE,5.8,-,N/A,,Clear,130,2013-04-07 23:56:00
7:56 PM,39.9,32.0,73,29.89,10.0,East,3.5,-,N/A,,Clear,80,2013-04-08 00:56:00
8:56 PM,37.0,32.0,82,29.88,10.0,ENE,6.9,-,N/A,,Clear,60,2013-04-08 01:56:00
9:56 PM,37.0,32.0,82,29.87,10.0,ENE,8.1,-,N/A,,Clear,60,2013-04-08 02:56:00
10:56 PM,37.9,33.1,83,29.86,10.0,Calm,Calm,-,N/A,,Overcast,0,2013-04-08 03:56:00
11:56 PM,39.0,33.1,79,29.84,10.0,East,5.8,-,0.00,Rain,Light Rain,80,2013-04-08 04:56:00